Location: Newark
(44.3894°N, 2.3378°E)
Time: 21:33:55
(UTC+00:00)

ISS - Visible Passes

Search period start: 18 July 2019 00:00
Search period end: 28 July 2019 00:00
Orbit: 409 x 418 km, 51.6° (Epoch: 19 July)

Date Brightness Start Highest point End Pass type
(mag) Time Alt. Az. Time Alt. Az. Time Alt. Az.
18 Jul -1.7 01:06:25 10° NW 01:09:21 28° NNE 01:12:18 10° ENE visible
18 Jul -3.9 02:43:00 10° WNW 02:46:19 78° SSW 02:49:36 10° SE visible
18 Jul -3.8 21:02:11 10° WSW 21:05:31 86° NNW 21:08:51 10° ENE visible
18 Jul -1.5 22:39:38 10° WNW 22:42:32 26° NNW 22:45:26 10° NE visible
19 Jul -1.4 00:17:07 10° NW 00:19:56 24° N 00:22:44 10° ENE visible
19 Jul -3.5 01:53:43 10° NW 01:57:02 66° NNE 02:00:20 10° ESE visible
19 Jul -2.3 03:31:02 10° W 03:33:25 18° SW 03:35:47 10° S visible
19 Jul -3.7 20:12:59 10° SW 20:16:16 57° SE 20:19:34 10° ENE visible
19 Jul -1.9 21:50:04 10° W 21:53:07 32° NNW 21:56:10 10° NE visible
19 Jul -1.3 23:27:44 10° NW 23:30:28 23° N 23:33:11 10° ENE visible
20 Jul -2.7 01:04:29 10° NW 01:07:42 44° NNE 01:09:07 27° E visible
20 Jul -2.2 02:45:52 20° S 02:45:52 20° S 02:47:16 10° SSE visible
20 Jul -2.4 21:00:31 10° W 21:03:43 42° NNW 21:06:55 10° NE visible
20 Jul -1.3 22:38:15 10° WNW 22:40:59 23° N 22:43:42 10° NE visible
21 Jul -2.0 00:15:14 10° NW 00:18:03 33° N 00:18:03 33° N visible
21 Jul -3.2 20:11:01 10° WSW 20:14:21 62° NNW 20:17:40 10° NE visible
21 Jul -1.4 21:48:41 10° WNW 21:51:29 24° N 21:54:17 10° NE visible
21 Jul -1.7 23:25:57 10° NW 23:28:52 27° NNE 23:29:26 25° NNE visible
22 Jul -1.6 20:59:03 10° WNW 21:02:00 28° NNW 21:04:56 10° NE visible
22 Jul -1.4 22:36:35 10° NW 22:39:23 24° N 22:41:15 15° NE visible
23 Jul -1.2 00:13:13 10° NW 00:14:02 16° NW 00:14:02 16° NW visible
23 Jul -2.0 20:09:26 10° W 20:12:32 34° NNW 20:15:38 10° NE visible
23 Jul -1.3 21:47:08 10° NW 21:49:51 23° N 21:52:35 10° ENE visible
23 Jul -1.8 23:23:57 10° NW 23:26:00 29° NNW 23:26:00 29° NNW visible
24 Jul -1.4 20:57:35 10° WNW 21:00:20 23° N 21:03:04 10° NE visible
24 Jul -2.1 22:34:38 10° NW 22:37:41 31° NNE 22:38:03 30° NNE visible
25 Jul -1.5 20:07:57 10° WNW 20:10:47 25° N 20:13:39 10° NE visible
25 Jul -1.7 21:45:18 10° NW 21:48:10 26° N 21:50:08 16° ENE visible
25 Jul -1.3 23:21:52 10° WNW 23:22:57 19° WNW 23:22:57 19° WNW visible
26 Jul -1.5 20:55:52 10° NW 20:58:39 23° N 21:01:24 10° ENE visible
26 Jul -2.5 22:32:33 10° NW 22:35:05 42° NNW 22:35:05 42° NNW visible
27 Jul -1.5 20:06:21 10° NW 20:09:04 23° N 20:11:48 10° NE visible
27 Jul -2.5 21:43:13 10° NW 21:46:22 38° NNE 21:47:15 31° ENE visible
27 Jul -0.7 23:19:56 10° WNW 23:20:04 11° WNW 23:20:04 11° WNW visible
